Station NABM4 - Naubinway, MI Image indicating link to RSS feed of recent meteorological observations for station NABM4


Conditions at NABM4 as of
(4:40 pm EDT)
2040 GMT on 07/19/2024:
     

Click on the graph icon in the table below to see a time series plot of the last five days of that observation.

5-day plot - Wind Direction Wind Direction (WDIR): SW ( 220 deg true )
5-day plot - Wind Speed Wind Speed (WSPD): 14.0 kts
5-day plot - Wind Gust Wind Gust (GST): 17.1 kts
5-day plot - Atmospheric Pressure Atmospheric Pressure (PRES):30.06 in
5-day plot - Air Temperature Air Temperature (ATMP): 68.4 °F
5-day plot - Wind Speed at 10 Meters Wind Speed at 10 meters (WSPD10M): 13.6 kts
5-day plot - Wind Speed at 20 Meters Wind Speed at 20 meters (WSPD20M): 15.5 kts
5-day plot -  Wind Speed, Wind Gust and Atmospheric Pressure Combined plot of Wind Speed, Gust, and Air Pressure
Previous observations
TIME
(EDT)
5-day plot - Wind Direction
WDIR
 
5-day plot - Wind Speed
WSPD
kts
5-day plot - Wind Gust
GST
kts
5-day plot - Wave Height
WVHT
ft
5-day plot - Dominant Wave Period
DPD
sec
5-day plot - Average Wave Period
APD
sec
5-day plot - Mean Wave Direction
MWD
 
5-day plot - Atmospheric Pressure
PRES
in
5-day plot - Pressure Tendency
PTDY
in
5-day plot - Air Temperature
ATMP
°F
5-day plot - Water Temperature
WTMP
°F
5-day plot - Dew Point
DEWP
°F
5-day plot - Salinity
SAL
psu
5-day plot - Visibility
VIS
nmi
5-day plot - Tide (above MLLW)
TIDE
ft
2024-07-19 04:30 pm SW 15.0 15.9----30.05- 68.5-----
2024-07-19 04:20 pm SW 13.0 15.9----30.06- 68.2-----
2024-07-19 04:10 pm SW 14.0 17.1----30.06- 68.2-----
2024-07-19 04:00 pm SW 15.0 17.1----30.06-0.02 67.8-----
2024-07-19 03:50 pm SW 14.0 17.1----30.06- 68.0-----
2024-07-19 03:40 pm SW 15.0 17.1----30.06- 67.6-----
2024-07-19 03:30 pm SW 14.0 17.1----30.06- 67.5-----
2024-07-19 03:20 pm SW 15.0 19.0----30.07- 67.6-----
2024-07-19 03:10 pm SW 15.9 18.1----30.07- 67.5-----
2024-07-19 03:00 pmSSW 15.0 17.1----30.07-0.03 67.3-----
2024-07-19 02:50 pm SW 15.0 17.1----30.07- 67.1-----
2024-07-19 02:40 pmSSW 15.9 18.1----30.07- 66.2-----
2024-07-19 02:30 pmSSW 15.0 18.1----30.07- 66.2-----
2024-07-19 02:20 pmSSW 15.9 18.1----30.07- 66.2-----
2024-07-19 02:10 pmSSW 15.0 20.0----30.07- 66.7-----
2024-07-19 02:00 pmSSW 17.1 19.0----30.07-0.04 66.2-----
2024-07-19 01:50 pmSSW 15.9 19.0----30.08- 66.2-----
2024-07-19 01:40 pmSSW 17.1 19.0----30.08- 66.0-----
2024-07-19 01:30 pmSSW 14.0 17.1----30.08- 66.4-----
2024-07-19 01:20 pmSSW 15.0 18.1----30.08- 66.4-----
2024-07-19 01:10 pmSSW 13.0 17.1----30.08- 66.4-----
2024-07-19 01:00 pmSSW 14.0 17.1----30.08-0.05 66.4-----
2024-07-19 12:50 pmSSW 15.0 17.1----30.08- 66.2-----
2024-07-19 12:40 pmSSW 14.0 15.9----30.09- 66.2-----
2024-07-19 12:30 pmSSW 13.0 15.0----30.09- 66.2-----
2024-07-19 12:20 pmSSW 13.0 15.0----30.09- 66.2-----
2024-07-19 12:10 pmSSW 13.0 15.0----30.09- 66.2-----
2024-07-19 12:00 pmSSW 13.0 14.0----30.10-0.03 66.2-----
2024-07-19 11:50 amSSW 12.0 14.0----30.10- 66.4-----
2024-07-19 11:40 amSSW 12.0 14.0----30.10- 65.8-----
2024-07-19 11:30 amSSW 11.1 13.0----30.10- 65.8-----
2024-07-19 11:20 amSSW 11.1 13.0----30.11- 65.8-----
2024-07-19 11:10 amSSW 9.9 13.0----30.11- 66.2-----
2024-07-19 11:00 am SW 12.0 13.0----30.11-0.02 66.4-----
2024-07-19 10:50 am SW 12.0 13.0----30.12- 66.4-----
2024-07-19 10:40 am SW 11.1 13.0----30.12- 66.4-----
2024-07-19 10:30 am SW 9.9 12.0----30.12- 66.0-----
2024-07-19 10:20 amSSW 9.9 12.0----30.12- 65.8-----
2024-07-19 10:10 amSSW 9.9 11.1----30.12- 65.8-----
2024-07-19 10:00 am SW 8.9 11.1----30.13+0.01 65.7-----
2024-07-19 09:50 amSSW 8.9 11.1----30.13- 65.3-----
2024-07-19 09:40 am SW 8.9 9.9----30.13- 65.7-----
2024-07-19 09:30 amSSW 7.0 8.9----30.13- 65.8-----
2024-07-19 09:20 am SE 1.9 2.9----30.14- 66.7-----
2024-07-19 09:10 am E 1.9 2.9----30.14- 66.7-----
2024-07-19 09:00 amESE 1.9 2.9----30.13+0.02 66.4-----
2024-07-19 08:50 amESE 2.9 2.9----30.13- 64.4-----
2024-07-19 08:40 amESE 1.9 1.9----30.13- 64.9-----
2024-07-19 08:30 amESE 1.9 1.9----30.13- 65.1-----
2024-07-19 08:20 amESE 1.0 1.9----30.13- 65.3-----
2024-07-19 08:10 am- 0.0 1.0----30.13- 65.3-----
2024-07-19 08:00 am- 0.0 1.0----30.13+0.02 61.5-----
2024-07-19 07:50 amNNE 1.0 1.9----30.13- 59.5-----
2024-07-19 07:40 am NE 1.0 1.9----30.12- 58.8-----
2024-07-19 07:30 am- 0.0 1.0----30.12- 58.8-----
2024-07-19 07:20 am- 0.0 1.9----30.12- 57.9-----
2024-07-19 07:10 am- 0.0 1.0----30.12- 57.0-----
2024-07-19 07:00 am- 0.0 0.0----30.12+0.01 56.1-----
2024-07-19 06:50 am- 0.0 0.0----30.11- 56.1-----
2024-07-19 06:40 am- 0.0 1.9----30.11- 55.6-----
2024-07-19 06:30 amNNW 1.9 2.9----30.11- 55.2-----
2024-07-19 06:20 amNNW 2.9 2.9----30.11- 55.2-----
2024-07-19 06:10 am N 1.0 1.9----30.11- 55.2-----
2024-07-19 06:00 amNNE 1.0 1.0----30.11+0.00 55.4-----
2024-07-19 05:50 am NE 1.0 1.0----30.11- 55.4-----
2024-07-19 05:40 am NE 1.0 1.0----30.11- 55.8-----
2024-07-19 05:30 am- 0.0 1.0----30.11- 56.1-----
2024-07-19 05:20 am- 0.0 1.0----30.11- 55.8-----
2024-07-19 05:10 am- 0.0 1.0----30.11- 56.1-----
2024-07-19 05:00 am NW 1.0 1.0----30.11-0.01 55.9-----
2024-07-19 04:50 am- 0.0 1.0----30.11- 56.8-----
2024-07-19 04:40 amNNE 1.0 1.9----30.10- 57.2-----
2024-07-19 04:30 am- 0.0 1.9----30.11- 57.2-----
2024-07-19 04:20 am NW 1.9 2.9----30.10- 57.9-----
2024-07-19 04:10 am NW 1.0 2.9----30.10- 58.1-----
2024-07-19 04:00 amWNW 1.9 2.9----30.11-0.01 58.5-----
2024-07-19 03:50 amWNW 1.9 1.9----30.11- 57.6-----
2024-07-19 03:40 am NW 1.9 2.9----30.11- 57.7-----
2024-07-19 03:30 am NW 1.9 2.9----30.10- 57.7-----
2024-07-19 03:20 am NW 1.9 1.9----30.10- 58.1-----
2024-07-19 03:10 am NW 1.9 2.9----30.10- 58.5-----
2024-07-19 03:00 amWNW 1.9 2.9----30.11-0.01 58.1-----
2024-07-19 02:50 am NW 2.9 4.1----30.11- 58.1-----
2024-07-19 02:40 amWNW 2.9 2.9----30.11- 58.3-----
2024-07-19 02:30 am NW 1.9 2.9----30.11- 58.3-----
2024-07-19 02:20 am NW 1.0 1.9----30.11- 58.3-----
2024-07-19 02:10 amNNW 1.9 2.9----30.12- 58.3-----
2024-07-19 02:00 amNNW 1.9 1.9----30.12+0.00 58.5-----
2024-07-19 01:50 am NW 1.9 2.9----30.12- 58.6-----
2024-07-19 01:40 am NW 1.9 2.9----30.12- 58.8-----
2024-07-19 01:30 amWNW 1.9 5.1----30.12- 59.4-----
2024-07-19 01:20 am W 1.9 4.1----30.12- 59.4-----
2024-07-19 01:10 amWNW 1.9 4.1----30.12- 59.7-----
2024-07-19 01:00 amWNW 1.9 5.1----30.12+0.00 60.4-----
2024-07-19 12:50 am W 1.9 5.1----30.12- 60.8-----
2024-07-19 12:40 am W 2.9 5.1----30.12- 61.0-----
2024-07-19 12:30 amWNW 2.9 7.0----30.12- 61.5-----
2024-07-19 12:20 amWNW 2.9 6.0----30.12- 61.5-----
2024-07-19 12:10 amWNW 4.1 7.0----30.12- 61.7-----
2024-07-19 12:00 amWNW 4.1 8.0----30.12+0.01 61.9-----
2024-07-18 11:50 pm W 4.1 7.0----30.12- 61.9-----
2024-07-18 11:40 pmWNW 2.9 6.0----30.12- 61.9-----
2024-07-18 11:30 pm W 2.9 6.0----30.12- 61.9-----
2024-07-18 11:20 pm W 1.9 5.1----30.12- 61.9-----
2024-07-18 11:10 pm W 2.9 5.1----30.12- 62.1-----
2024-07-18 11:00 pm W 2.9 5.1----30.12+0.00 62.2-----
2024-07-18 10:50 pm W 1.9 5.1----30.12- 62.2-----
2024-07-18 10:40 pm W 4.1 5.1----30.12- 62.6-----
2024-07-18 10:30 pm W 2.9 5.1----30.12- 62.8-----
2024-07-18 10:20 pm W 1.9 5.1----30.12- 63.3-----
2024-07-18 10:10 pm W 2.9 7.0----30.12- 63.7-----
2024-07-18 10:00 pm W 4.1 7.0----30.12+0.01 63.9-----
2024-07-18 09:50 pm W 4.1 7.0----30.11- 64.2-----
2024-07-18 09:40 pm W 5.1 7.0----30.11- 64.4-----
2024-07-18 09:30 pmWSW 5.1 8.0----30.11- 64.8-----
2024-07-18 09:20 pmWSW 5.1 7.0----30.11- 64.9-----
2024-07-18 09:10 pmWSW 4.1 8.0----30.11- 65.5-----
2024-07-18 09:00 pmWSW 6.0 8.9----30.11-0.01 66.0-----
2024-07-18 08:50 pmWSW 5.1 8.0----30.11- 66.2-----
2024-07-18 08:40 pmWSW 6.0 8.9----30.12- 66.4-----
2024-07-18 08:30 pm SW 6.0 11.1----30.12- 66.6-----
2024-07-18 08:20 pm SW 7.0 12.0----30.12- 66.7-----
2024-07-18 08:10 pm SW 7.0 13.0----30.12- 66.6-----
2024-07-18 08:00 pm SW 8.9 14.0----30.12-0.01 66.6-----
2024-07-18 07:50 pm SW 8.0 14.0----30.12- 66.6-----
2024-07-18 07:40 pmWSW 8.9 15.0----30.12- 66.4-----
2024-07-18 07:30 pm SW 9.9 15.9----30.12- 66.4-----
2024-07-18 07:20 pm SW 8.9 17.1----30.12- 66.2-----
2024-07-18 07:10 pm SW 11.1 18.1----30.12- 66.2-----
2024-07-18 07:00 pm SW 14.0 18.1----30.11-0.02 66.4-----
2024-07-18 06:50 pm SW 15.0 19.0----30.11- 66.4-----
2024-07-18 06:40 pm SW 15.9 18.1----30.11- 66.4-----
2024-07-18 06:30 pm SW 17.1 19.0----30.11- 66.4-----
2024-07-18 06:20 pm SW 15.9 20.0----30.12- 66.7-----
2024-07-18 06:10 pm SW 17.1 20.0----30.12- 66.4-----
2024-07-18 06:00 pm SW 15.9 20.0----30.12-0.01 66.0-----
2024-07-18 05:50 pm SW 15.9 21.0----30.12- 66.6-----
2024-07-18 05:40 pm SW 17.1 20.0----30.12- 66.7-----
2024-07-18 05:30 pm SW 15.9 20.0----30.12- 66.9-----
2024-07-18 05:20 pm SW 15.9 19.0----30.12- 67.1-----
2024-07-18 05:10 pm SW 13.0 17.1----30.12- 67.1-----
2024-07-18 05:00 pm SW 13.0 17.1----30.13+0.00 66.9-----
2024-07-18 04:50 pm SW 15.0 17.1----30.12- 66.7-----